Location: London
(42.9830°N, 81.2500°W)
Time: 15:13:02
(UTC-05:00)

Amateur Radio Satellites - All Passes

Search period start: 28 January 2015 14:43
Search period end: 29 January 2015 14:43
Location: London, 42.9830°N, 81.2500°W

Satellite Date Start Highest point End Downlink Frequencies (MHz)
Time Altitude Azimuth
ITAMSAT 1 28 Jan 14:43:04 14:47:42 32° 264° (W) 14:52:20 435.822/435.867
SWISSCUBE 28 Jan 14:45:14 14:49:43 39° 290° (WNW) 14:54:08 437.505
HORYU 2 28 Jan 14:48:48 14:53:17 70° 74° (ENE) 14:57:48 437.375
CUSAT 1 28 Jan 14:53:17 14:59:16 36° 67° (ENE) 15:03:55 437.405
JAS-2 28 Jan 14:57:39 15:00:57 17° 62° (ENE) 15:04:22 435.910
BEESAT 28 Jan 15:01:28 15:05:39 30° 292° (WNW) 15:09:46 436.000
ITUPSAT 1 28 Jan 15:04:46 15:08:56 29° 292° (WNW) 15:13:00 437.325
AUBIESAT-1 28 Jan 15:15:00 15:16:57 15° 98° (E) 15:19:04 437.475
STARS 28 Jan 15:32:35 15:37:05 89° 103° (ESE) 15:41:32 437.465
Gurwin Techsat 1B 28 Jan 15:36:15 15:39:46 17° 271° (W) 15:43:03 435.225
KKS-1 28 Jan 15:36:58 15:41:23 55° 287° (WNW) 15:45:46 437.445
DANDE 28 Jan 16:01:58 16:08:57 74° 264° (W) 16:14:05 436.750
RS-15 28 Jan 16:05:38 16:15:43 37° 252° (WSW) 16:25:54 29.354- 29.394
M-CUBED/EXP-1 PRIME 28 Jan 16:14:49 16:18:08 74° 291° (WNW) 16:21:31 437.505
AO-7 28 Jan 16:24:06 16:32:10 50° 260° (W) 16:40:13 29.400- 29.500
HORYU 2 28 Jan 16:28:43 16:30:32 12° 272° (W) 16:32:05 437.375
O/OREOS (USA 219) 28 Jan 16:35:55 16:40:20 61° 110° (ESE) 16:44:49 437.305
CUSAT 1 28 Jan 16:36:40 16:42:09 31° 274° (W) 16:46:23 437.405
Cubesat XI-IV 28 Jan 16:40:02 16:43:57 22° 63° (ENE) 16:48:01 437.490
JAS-2 28 Jan 16:40:13 16:45:44 64° 258° (WSW) 16:50:55 435.910
AUBIESAT-1 28 Jan 16:49:06 16:52:03 29° 294° (WNW) 16:55:01 437.475
CUTE-I 28 Jan 16:59:29 17:04:04 31° 67° (ENE) 17:08:45 437.470
MOZHAYETS 4 28 Jan 17:09:30 17:14:02 60° 100° (E) 17:18:33
STARS 28 Jan 17:11:57 17:12:57 10° 300° (WNW) 17:13:42 437.465
PRISM 28 Jan 17:47:48 17:49:58 14° 90° (E) 17:52:21 437.425
SO-50 28 Jan 18:03:07 18:06:33 19° 37° (NE) 18:10:06 436.795
O/OREOS (USA 219) 28 Jan 18:17:20 18:20:16 16° 310° (NW) 18:23:03 437.305
Cubesat XI-IV 28 Jan 18:18:31 18:23:43 54° 260° (W) 18:28:58 437.490
CUTE-I 28 Jan 18:39:12 18:44:05 36° 264° (W) 18:48:59 437.470
STRAND 1 28 Jan 18:47:43 18:52:22 34° 96° (E) 18:57:04 437.568
MOZHAYETS 4 28 Jan 18:48:05 18:50:51 16° 296° (WNW) 18:53:27
YUBILEINY 28 Jan 18:59:22 19:06:39 33° 85° (E) 19:14:11 435.215
CUBESAT XI-V 28 Jan 18:59:37 19:04:17 65° 101° (E) 19:08:58 437.345
SEEDS 28 Jan 19:08:26 19:08:50 10° 62° (ENE) 19:09:27 437.485
HO-68 28 Jan 19:09:40 19:15:41 32° 61° (ENE) 19:21:51 435.675
GOMX 1 28 Jan 19:21:03 19:24:46 21° 63° (ENE) 19:28:47 467.674
BRITE-PL 28 Jan 19:21:13 19:25:30 29° 66° (ENE) 19:30:08 437.365/2234.400
PRISM 28 Jan 19:21:50 19:25:51 49° 288° (WNW) 19:29:53 437.425
CINEMA 3 28 Jan 19:31:45 19:33:00 11° 59° (ENE) 19:34:31 145.822/145.860
COMPASS 1 28 Jan 19:33:44 19:36:16 16° 65° (ENE) 19:38:57 437.405
DOVE 4 28 Jan 19:36:40 19:40:24 21° 64° (ENE) 19:44:23 437.250
SO-50 28 Jan 19:42:48 19:47:45 83° 239° (WSW) 19:52:42 436.795
CANX-2 28 Jan 19:44:29 19:48:16 31° 70° (ENE) 19:52:05 2200.000
AAUSAT CUBESAT 2 28 Jan 19:59:32 20:03:00 26° 69° (ENE) 20:06:32 437.432
DELFI C3 28 Jan 20:01:33 20:02:26 11° 63° (ENE) 20:03:33 145.870
CUTE 1.7 + AOD 2 28 Jan 20:08:19 20:12:28 51° 73° (ENE) 20:16:39 437.475
Oscar 11 28 Jan 20:08:44 20:11:34 18° 65° (ENE) 20:14:31 145.826/435.025
STRAND 1 28 Jan 20:27:01 20:31:32 31° 293° (WNW) 20:35:59 437.568
CUBESAT XI-V 28 Jan 20:38:32 20:41:17 15° 297° (WNW) 20:43:52 437.345
SEEDS 28 Jan 20:39:49 20:44:05 84° 257° (WSW) 20:48:22 437.485
UKube-1 28 Jan 20:43:02 20:46:28 24° 67° (ENE) 20:50:01 .
CUBEBUG 2 28 Jan 20:45:09 20:49:18 31° 69° (ENE) 20:53:33 437.445
YUBILEINY 28 Jan 20:54:36 21:03:07 56° 285° (WNW) 21:11:40 435.215
ZACube-1 28 Jan 20:55:56 20:59:49 28° 69° (ENE) 21:03:48 437.345
HO-68 28 Jan 20:56:07 21:03:08 55° 259° (W) 21:10:08 435.675
GOMX 1 28 Jan 20:57:30 21:02:28 55° 261° (W) 21:07:45 467.674
BRITE-PL 28 Jan 20:59:08 21:03:51 39° 265° (W) 21:08:54 437.365/2234.400
DX 1 28 Jan 21:02:22 21:06:24 39° 70° (ENE) 21:10:30 434.975-435.025
CINEMA 3 28 Jan 21:04:29 21:09:26 79° 75° (ENE) 21:14:30 145.822/145.860
HUMSAT D 28 Jan 21:04:57 21:07:59 19° 66° (ENE) 21:11:09 437.325/437.525
COMPASS 1 28 Jan 21:07:33 21:11:40 49° 261° (W) 21:15:47 437.405
FUNcube-1 28 Jan 21:07:47 21:11:58 36° 70° (ENE) 21:16:12 145.935
DOVE 4 28 Jan 21:12:51 21:17:46 53° 262° (W) 21:22:56 437.250
CANX-2 28 Jan 21:20:43 21:24:16 24° 267° (W) 21:27:45 2200.000
AISAT 28 Jan 21:24:15 21:27:55 26° 68° (ENE) 21:31:42 437.250
ISS 28 Jan 21:24:28 21:26:10 14° 132° (SE) 21:27:57 145.825
UWE-3 28 Jan 21:26:00 21:30:39 67° 75° (ENE) 21:35:21 435.000/436.395/437.385
SO-50 28 Jan 21:26:35 21:27:40 10° 252° (WSW) 21:28:25 436.795
ESTCUBE 1 28 Jan 21:27:01 21:28:57 13° 62° (ENE) 21:31:05 437.505/2401.250
DELFI C3 28 Jan 21:33:06 21:37:11 73° 258° (WSW) 21:41:16 145.870
AAUSAT CUBESAT 2 28 Jan 21:34:56 21:38:37 28° 265° (W) 21:42:15 437.432
Oscar 11 28 Jan 21:43:14 21:47:26 47° 261° (W) 21:51:39 145.826/435.025
CUTE 1.7 + AOD 2 28 Jan 21:46:15 21:48:47 15° 271° (W) 21:51:08 437.475
VELOX 1 28 Jan 21:52:10 21:56:26 49° 72° (ENE) 22:00:45 145.980
CUBEBUG 1 28 Jan 22:03:09 22:06:45 26° 68° (ENE) 22:10:26 437.445
QB50P1 28 Jan 22:14:40 22:16:08 12° 88° (E) 22:17:50 145.935-145.965
UKube-1 28 Jan 22:18:36 22:22:32 32° 263° (W) 22:26:27 .
50 SAT 28 Jan 22:20:59 22:25:08 89° 255° (WSW) 22:29:18 437.505
CUBEBUG 2 28 Jan 22:21:49 22:26:00 30° 266° (W) 22:30:10 437.445
UNISAT 6 28 Jan 22:24:17 22:28:01 26° 94° (E) 22:31:42 437.425
POLYITAN 1 28 Jan 22:27:57 22:30:45 17° 91° (E) 22:33:39 437.675
BUGSAT 1 28 Jan 22:29:10 22:31:08 13° 89° (E) 22:33:19 437.445
TISAT 1 28 Jan 22:31:58 22:33:57 13° 63° (ENE) 22:36:07 437.305
ZACube-1 28 Jan 22:32:01 22:36:08 31° 265° (W) 22:40:14 437.345
HUMSAT D 28 Jan 22:39:23 22:43:32 43° 262° (W) 22:47:42 437.325/437.525
DX 1 28 Jan 22:39:36 22:42:51 20° 268° (W) 22:46:01 434.975-435.025
FUNcube-1 28 Jan 22:44:39 22:48:26 24° 268° (W) 22:52:07 145.935
AIST 1 28 Jan 22:44:43 22:49:04 73° 81° (E) 22:53:26
CINEMA 3 28 Jan 22:45:10 22:47:22 12° 275° (W) 22:49:18 145.822/145.860
POPSAT HIP 1 28 Jan 22:47:39 22:51:19 27° 94° (E) 22:55:02 437.405
DUCHIFAT 1 28 Jan 22:50:37 22:54:21 29° 95° (E) 22:58:07 145.980
ISS 28 Jan 22:59:02 23:02:18 77° 326° (NNW) 23:05:37 145.825
ANTELSAT 28 Jan 22:59:45 23:04:12 63° 101° (E) 23:08:32 437.575/2403.000
YUBILEINY 28 Jan 22:59:49 23:02:33 11° 310° (NW) 23:04:39 435.215
AISAT 28 Jan 23:00:30 23:04:28 31° 264° (W) 23:08:27 437.250
ESTCUBE 1 28 Jan 23:00:51 23:05:19 72° 258° (WSW) 23:09:50 437.505/2401.250
UWE-3 28 Jan 23:05:21 23:07:45 13° 273° (W) 23:09:55 435.000/436.395/437.385
TIGRISAT 28 Jan 23:07:50 23:12:20 75° 102° (ESE) 23:16:41 435.000
NANOSAT C BR1 28 Jan 23:24:42 23:29:01 70° 102° (ESE) 23:33:17 145.865
SPROUT 28 Jan 23:26:12 23:30:20 48° 73° (ENE) 23:34:33 437.525
VELOX 1 28 Jan 23:30:28 23:33:22 16° 270° (W) 23:36:07 145.980
QB50P2 28 Jan 23:38:42 23:43:02 81° 284° (WNW) 23:47:20 145.880/145.840
CUBEBUG 1 28 Jan 23:39:13 23:43:04 30° 265° (W) 23:46:54 437.445
QB50P1 28 Jan 23:48:16 23:52:34 65° 286° (WNW) 23:56:48 145.935-145.965
UNISAT 6 29 Jan 00:00:53 00:04:50 30° 292° (WNW) 00:08:39 437.425
POLYITAN 1 29 Jan 00:02:50 00:06:59 44° 288° (WNW) 00:11:04 437.675
BUGSAT 1 29 Jan 00:02:51 00:07:04 57° 286° (WNW) 00:11:16 437.445
TISAT 1 29 Jan 00:05:07 00:09:19 62° 259° (W) 00:13:34 437.305
SWISSCUBE 29 Jan 00:15:31 00:19:36 30° 68° (ENE) 00:23:46 437.505
POPSAT HIP 1 29 Jan 00:23:29 00:27:13 28° 291° (WNW) 00:30:52 437.405
DUCHIFAT 1 29 Jan 00:26:31 00:30:10 26° 292° (WNW) 00:33:43 145.980
BEESAT 29 Jan 00:31:04 00:35:27 39° 70° (ENE) 00:39:54 436.000
ITUPSAT 1 29 Jan 00:34:35 00:39:01 41° 70° (ENE) 00:43:31 437.325
ISS 29 Jan 00:36:34 00:39:13 22° 347° (NNW) 00:41:53 145.825
ANTELSAT 29 Jan 00:38:05 00:40:32 14° 297° (WNW) 00:42:47 437.575/2403.000
TIGRISAT 29 Jan 00:46:38 00:48:31 12° 299° (WNW) 00:50:11 435.000
STARS 29 Jan 00:58:48 00:58:59 10° 60° (ENE) 00:59:26 437.465
Oscar 19 29 Jan 01:00:46 01:04:34 21° 91° (E) 01:08:30 437.125/150
GONETS M04 29 Jan 01:00:59 01:09:00 43° 88° (E) 01:17:07
KKS-1 29 Jan 01:01:19 01:04:04 17° 64° (ENE) 01:06:58 437.445
NANOSAT C BR1 29 Jan 01:02:29 01:04:23 12° 298° (WNW) 01:06:06 145.865
SPROUT 29 Jan 01:04:04 01:06:47 16° 270° (W) 01:09:20 437.525
O/OREOS (USA 219) 29 Jan 01:06:39 01:09:38 17° 51° (NE) 01:12:45 437.305
M-CUBED/EXP-1 PRIME 29 Jan 01:31:46 01:34:02 15° 62° (ENE) 01:36:21 437.505
BEESAT 2 29 Jan 01:48:49 01:51:21 16° 112° (ESE) 01:54:03 435.950
SWISSCUBE 29 Jan 01:53:14 01:57:27 31° 264° (W) 02:01:38 437.505
BEESAT 3 29 Jan 02:02:25 02:05:47 26° 115° (ESE) 02:09:17 437.485
AUBIESAT-1 29 Jan 02:04:04 02:07:32 30° 66° (ENE) 02:10:48 437.475
BEESAT 29 Jan 02:09:38 02:13:28 23° 267° (W) 02:17:14 436.000
Gurwin Techsat 1B 29 Jan 02:09:57 02:14:06 23° 92° (E) 02:18:23 435.225
ITUPSAT 1 29 Jan 02:13:23 02:17:08 22° 267° (W) 02:20:46 437.325
ISS 29 Jan 02:14:07 02:16:33 19° 7° (N) 02:19:01 145.825
STARS 29 Jan 02:30:21 02:34:49 87° 83° (E) 02:39:20 437.465
KKS-1 29 Jan 02:35:57 02:40:20 54° 260° (W) 02:44:47 437.445
Oscar 19 29 Jan 02:39:17 02:44:16 49° 289° (WNW) 02:49:10 437.125/150
HORYU 2 29 Jan 02:41:29 02:43:14 12° 88° (E) 02:45:13 437.375
O/OREOS (USA 219) 29 Jan 02:44:59 02:49:31 59° 251° (WSW) 02:54:03 437.305
ITAMSAT 1 29 Jan 02:54:10 02:59:27 84° 106° (ESE) 03:04:41 435.822/435.867
GONETS M04 29 Jan 02:57:37 03:05:55 43° 289° (WNW) 03:14:05
M-CUBED/EXP-1 PRIME 29 Jan 03:04:54 03:08:50 45° 255° (WSW) 03:12:28 437.505
AIST 2 29 Jan 03:18:50 03:23:01 60° 120° (ESE) 03:27:16 435.215
BEESAT 2 29 Jan 03:25:11 03:29:14 51° 308° (NW) 03:33:20 435.950
PCSat 29 Jan 03:27:33 03:30:27 15° 105° (ESE) 03:33:36 145.827
DANDE 29 Jan 03:29:51 03:36:27 29° 85° (E) 03:43:34 436.750
AUBIESAT-1 29 Jan 03:39:22 03:42:30 21° 259° (W) 03:45:23 437.475
BEESAT 3 29 Jan 03:40:04 03:43:50 34° 312° (NW) 03:47:39 437.485
JAS-2 29 Jan 03:48:31 03:51:23 14° 89° (E) 03:54:44 435.910
Gurwin Techsat 1B 29 Jan 03:49:16 03:54:21 46° 290° (WNW) 03:59:24 435.225
ISS 29 Jan 03:50:28 03:53:40 45° 27° (NNE) 03:56:51 145.825
CUSAT 1 29 Jan 03:59:24 04:07:10 50° 92° (E) 04:15:12 437.405
MOZHAYETS 4 29 Jan 04:12:15 04:16:47 62° 74° (ENE) 04:21:19
HORYU 2 29 Jan 04:16:01 04:20:27 65° 286° (WNW) 04:24:49 437.375
RS-15 29 Jan 04:18:26 04:27:55 38° 109° (ESE) 04:37:41 29.354- 29.394
AO-7 29 Jan 04:24:12 04:32:21 56° 102° (ESE) 04:40:28 29.400- 29.500
ITAMSAT 1 29 Jan 04:35:29 04:38:20 14° 300° (WNW) 04:40:57 435.822/435.867
PRISM 29 Jan 04:40:11 04:42:04 13° 63° (ENE) 04:44:07 437.425
AIST 2 29 Jan 04:58:52 05:02:02 19° 320° (NW) 05:05:09 435.215
PCSat 29 Jan 05:07:52 05:13:17 77° 301° (WNW) 05:18:46 145.827
YUBILEINY 29 Jan 05:08:17 05:13:23 17° 56° (ENE) 05:18:58 435.215
DANDE 29 Jan 05:11:04 05:19:19 72° 283° (WNW) 05:28:00 436.750
CUTE-I 29 Jan 05:18:17 05:19:07 10° 85° (E) 05:20:19 437.470
ISS 29 Jan 05:27:14 05:30:03 25° 224° (SW) 05:32:49 145.825
JAS-2 29 Jan 05:31:29 05:37:08 83° 285° (WNW) 05:43:29 435.910
CUSAT 1 29 Jan 05:42:37 05:50:25 42° 291° (WNW) 05:58:12 437.405
MOZHAYETS 4 29 Jan 05:52:05 05:54:31 14° 272° (W) 05:56:44
CUBESAT XI-V 29 Jan 06:03:54 06:08:28 69° 75° (ENE) 06:13:05 437.345
STRAND 1 29 Jan 06:04:26 06:09:22 54° 71° (ENE) 06:14:22 437.568
PRISM 29 Jan 06:13:07 06:17:11 59° 259° (W) 06:21:15 437.425
AO-7 29 Jan 06:17:26 06:24:54 37° 301° (WNW) 06:32:11 29.400- 29.500
RS-15 29 Jan 06:28:55 06:39:45 65° 311° (NW) 06:50:44 29.354- 29.394
Cubesat XI-IV 29 Jan 06:34:43 06:40:01 57° 100° (E) 06:45:19 437.490
PCSat 29 Jan 06:54:19 06:57:42 16° 323° (NW) 07:00:57 145.827
CUTE-I 29 Jan 06:54:44 07:00:08 84° 102° (ESE) 07:05:32 437.470
DANDE 29 Jan 06:58:44 07:04:30 18° 305° (NW) 07:09:53 436.750
YUBILEINY 29 Jan 07:03:13 07:12:02 78° 80° (E) 07:20:52 435.215
JAS-2 29 Jan 07:19:02 07:21:42 13° 300° (WNW) 07:24:10 435.910
CUBESAT XI-V 29 Jan 07:44:31 07:46:31 12° 273° (W) 07:48:17 437.345
STRAND 1 29 Jan 07:45:19 07:48:58 19° 269° (W) 07:52:29 437.568
VERMONT LUNAR 29 Jan 08:01:02 08:01:54 11° 148° (SSE) 08:02:51 437.305
Cubesat XI-IV 29 Jan 08:15:44 08:19:45 21° 297° (WNW) 08:23:38 437.490
HO-68 29 Jan 08:23:08 08:29:02 28° 93° (E) 08:35:06 435.675
SEEDS 29 Jan 08:25:00 08:27:23 15° 90° (E) 08:29:55 437.485
CUTE-I 29 Jan 08:36:35 08:39:36 15° 300° (WNW) 08:42:24 437.470
RS-15 29 Jan 08:45:50 08:54:51 27° 341° (NNW) 09:03:56 29.354- 29.394
COMPASS 1 29 Jan 08:50:57 08:54:20 24° 94° (E) 08:57:47 437.405
PHONESAT 2.4 29 Jan 08:57:43 08:59:59 16° 151° (SSE) 09:02:19 2401.200-2431.200
GOMX 1 29 Jan 08:58:47 09:04:02 47° 97° (E) 09:09:03 467.674
CINEMA 3 29 Jan 09:00:12 09:03:31 19° 89° (E) 09:06:54 145.822/145.860
YUBILEINY 29 Jan 09:01:30 09:08:02 23° 279° (W) 09:14:13 435.215
BRITE-PL 29 Jan 09:02:38 09:08:21 71° 100° (E) 09:13:49 437.365/2234.400
CANX-2 29 Jan 09:04:27 09:08:36 53° 99° (E) 09:12:44 2200.000
QB50P1 29 Jan 09:09:28 09:10:43 11° 62° (ENE) 09:12:11 145.935-145.965
DOVE 4 29 Jan 09:11:35 09:16:34 44° 97° (E) 09:21:20 437.250
DELFI C3 29 Jan 09:13:57 09:16:08 14° 90° (E) 09:18:29 145.870
AAUSAT CUBESAT 2 29 Jan 09:16:57 09:20:53 41° 97° (E) 09:24:49 437.432
UWE-3 29 Jan 09:17:31 09:19:25 13° 87° (E) 09:21:31 435.000/436.395/437.385
BUGSAT 1 29 Jan 09:21:47 09:22:55 11° 62° (ENE) 09:24:15 437.445
POLYITAN 1 29 Jan 09:22:44 09:25:19 16° 64° (ENE) 09:28:03 437.675
UNISAT 6 29 Jan 09:24:04 09:28:03 29° 68° (ENE) 09:32:07 437.425
CUTE 1.7 + AOD 2 29 Jan 09:28:34 09:32:50 89° 286° (WNW) 09:37:03 437.475
Oscar 11 29 Jan 09:29:59 09:33:42 28° 95° (E) 09:37:27 145.826/435.025
VERMONT LUNAR 29 Jan 09:36:13 09:39:26 35° 163° (SSE) 09:42:40 437.305
POPSAT HIP 1 29 Jan 09:41:50 09:45:16 24° 68° (ENE) 09:48:47 437.405
DUCHIFAT 1 29 Jan 09:44:28 09:47:57 25° 68° (ENE) 09:51:31 145.980
SO-50 29 Jan 09:59:01 10:02:44 26° 114° (ESE) 10:06:39 436.795
ANTELSAT 29 Jan 09:59:16 10:03:56 63° 74° (ENE) 10:08:37 437.575/2403.000
SEEDS 29 Jan 09:59:30 10:03:33 47° 287° (WNW) 10:07:33 437.485
50 SAT 29 Jan 10:01:56 10:03:13 11° 88° (E) 10:04:44 437.505
AIST 2 29 Jan 10:04:15 10:04:32 10° 31° (NNE) 10:04:58 435.215
UKube-1 29 Jan 10:05:08 10:09:11 37° 98° (E) 10:13:14 .
BEESAT 2 29 Jan 10:06:51 10:09:44 18° 40° (NE) 10:12:41 435.950
TIGRISAT 29 Jan 10:07:00 10:11:43 74° 74° (ENE) 10:16:24 435.000
HO-68 29 Jan 10:10:13 10:17:13 58° 292° (WNW) 10:24:11 435.675
CUBEBUG 2 29 Jan 10:11:53 10:16:26 58° 100° (E) 10:20:49 437.445
NANOSAT C BR1 29 Jan 10:18:13 10:22:25 58° 74° (ENE) 10:26:39 145.865
ZACube-1 29 Jan 10:19:44 10:24:03 48° 98° (E) 10:28:15 437.345
BEESAT 3 29 Jan 10:20:41 10:24:07 25° 44° (NE) 10:27:35 437.485
HUMSAT D 29 Jan 10:23:19 10:26:59 28° 95° (E) 10:30:39 437.325/437.525
DX 1 29 Jan 10:25:40 10:30:05 65° 102° (ESE) 10:34:27 434.975-435.025
COMPASS 1 29 Jan 10:26:27 10:30:06 29° 290° (WNW) 10:33:40 437.405
FUNcube-1 29 Jan 10:31:38 10:36:04 65° 100° (E) 10:40:21 145.935
QB50P2 29 Jan 10:32:26 10:36:43 85° 76° (ENE) 10:41:03 145.880/145.840
PHONESAT 2.4 29 Jan 10:34:37 10:38:04 44° 167° (SSE) 10:41:33 2401.200-2431.200
CINEMA 3 29 Jan 10:36:23 10:41:07 48° 288° (WNW) 10:45:35 145.822/145.860
GOMX 1 29 Jan 10:37:25 10:41:52 25° 295° (WNW) 10:46:03 467.674
CANX-2 29 Jan 10:41:43 10:44:11 15° 295° (WNW) 10:46:29 2200.000
QB50P1 29 Jan 10:41:48 10:46:04 77° 256° (WSW) 10:50:24 145.935-145.965
BRITE-PL 29 Jan 10:42:20 10:46:16 19° 298° (WNW) 10:49:57 437.365/2234.400
DELFI C3 29 Jan 10:47:49 10:51:42 45° 287° (WNW) 10:55:34 145.870
DOVE 4 29 Jan 10:49:50 10:54:04 25° 295° (WNW) 10:58:04 437.250
AISAT 29 Jan 10:50:07 10:54:28 46° 99° (E) 10:58:49 437.250
UWE-3 29 Jan 10:52:03 10:56:33 63° 286° (WNW) 11:00:52 435.000/436.395/437.385
AAUSAT CUBESAT 2 29 Jan 10:53:25 10:56:18 18° 294° (WNW) 10:59:04 437.432
ESTCUBE 1 29 Jan 10:53:25 10:56:56 22° 93° (E) 11:00:32 437.505/2401.250
BUGSAT 1 29 Jan 10:53:47 10:57:53 73° 258° (WSW) 11:02:03 437.445
POLYITAN 1 29 Jan 10:56:41 11:00:53 52° 260° (W) 11:05:09 437.675
UNISAT 6 29 Jan 11:00:33 11:04:47 32° 264° (W) 11:08:59 437.425
RS-15 29 Jan 11:03:12 11:12:02 26° 16° (NNE) 11:21:17 29.354- 29.394
Oscar 11 29 Jan 11:06:11 11:09:52 27° 291° (WNW) 11:13:27 145.826/435.025
GONETS M04 29 Jan 11:10:15 11:16:32 22° 61° (ENE) 11:23:09
VERMONT LUNAR 29 Jan 11:13:51 11:17:18 58° 180° (S) 11:20:46 437.305
AIST 1 29 Jan 11:15:23 11:19:21 40° 93° (E) 11:23:22
POPSAT HIP 1 29 Jan 11:17:12 11:21:03 32° 264° (W) 11:24:55 437.405
VELOX 1 29 Jan 11:18:17 11:22:49 89° 102° (ESE) 11:27:19 145.980
DUCHIFAT 1 29 Jan 11:19:57 11:23:44 30° 265° (W) 11:27:30 145.980
CUBEBUG 1 29 Jan 11:26:44 11:31:01 46° 98° (E) 11:35:19 437.445
50 SAT 29 Jan 11:34:49 11:38:50 58° 286° (WNW) 11:42:45 437.505
ANTELSAT 29 Jan 11:38:35 11:41:14 14° 272° (W) 11:43:39 437.575/2403.000
SO-50 29 Jan 11:38:45 11:43:07 41° 312° (NW) 11:47:37 436.795
AIST 2 29 Jan 11:40:00 11:44:13 52° 52° (NE) 11:48:22 435.215
UKube-1 29 Jan 11:41:46 11:45:10 22° 294° (WNW) 11:48:27 .
BEESAT 2 29 Jan 11:44:14 11:48:23 62° 240° (WSW) 11:52:27 435.950
TIGRISAT 29 Jan 11:47:06 11:49:04 12° 273° (W) 11:50:47 435.000
CUBEBUG 2 29 Jan 11:49:52 11:52:41 16° 297° (WNW) 11:55:19 437.445
TISAT 1 29 Jan 11:49:59 11:53:04 20° 92° (E) 11:56:16 437.305
NANOSAT C BR1 29 Jan 11:56:39 11:58:46 13° 272° (W) 12:00:39 145.865
ZACube-1 29 Jan 11:57:05 12:00:05 17° 295° (WNW) 12:02:53 437.345
BEESAT 3 29 Jan 11:58:31 12:02:24 38° 243° (WSW) 12:06:12 437.485
HUMSAT D 29 Jan 11:59:11 12:02:45 26° 292° (WNW) 12:06:10 437.325/437.525
HO-68 29 Jan 12:00:45 12:03:39 12° 311° (NW) 12:06:10 435.675
DX 1 29 Jan 12:03:33 12:05:52 14° 298° (WNW) 12:08:00 434.975-435.025
FUNcube-1 29 Jan 12:09:38 12:11:55 14° 297° (WNW) 12:14:00 145.935
PCSat 29 Jan 12:12:26 12:16:17 20° 40° (NE) 12:20:15 145.827
PHONESAT 2.4 29 Jan 12:12:53 12:16:27 57° 184° (S) 12:20:03 2401.200-2431.200
Oscar 19 29 Jan 12:18:14 12:22:51 34° 68° (ENE) 12:27:34 437.125/150
AISAT 29 Jan 12:27:33 12:30:49 19° 295° (WNW) 12:33:57 437.250
ESTCUBE 1 29 Jan 12:29:47 12:33:58 37° 290° (WNW) 12:38:06 437.505/2401.250
ITAMSAT 1 29 Jan 12:35:46 12:39:16 19° 62° (ENE) 12:42:57 435.822/435.867
SPROUT 29 Jan 12:47:55 12:52:19 87° 103° (ESE) 12:56:40 437.525
VERMONT LUNAR 29 Jan 12:51:55 12:55:12 37° 196° (SSW) 12:58:29 437.305
AIST 1 29 Jan 12:54:20 12:57:17 17° 291° (WNW) 13:00:06
VELOX 1 29 Jan 12:57:39 12:58:48 11° 300° (WNW) 12:59:42 145.980
CUBEBUG 1 29 Jan 13:03:57 13:07:07 19° 295° (WNW) 13:10:09 437.445
GONETS M04 29 Jan 13:05:55 13:14:39 83° 264° (W) 13:23:21
RS-15 29 Jan 13:16:31 13:27:35 58° 46° (NE) 13:39:12 29.354- 29.394
AIST 2 29 Jan 13:19:40 13:22:29 17° 249° (WSW) 13:25:08 435.215
TISAT 1 29 Jan 13:25:04 13:29:05 38° 289° (WNW) 13:33:03 437.305
Gurwin Techsat 1B 29 Jan 13:31:44 13:36:38 40° 69° (ENE) 13:41:36 435.225
AO-7 29 Jan 13:35:01 13:40:27 20° 50° (NE) 13:46:10 29.400- 29.500
HORYU 2 29 Jan 13:40:59 13:43:23 15° 63° (ENE) 13:45:58 437.375
PHONESAT 2.4 29 Jan 13:51:30 13:54:45 30° 200° (SSW) 13:57:59 2401.200-2431.200
SWISSCUBE 29 Jan 13:51:59 13:56:46 63° 102° (ESE) 14:01:30 437.505
PCSat 29 Jan 13:54:58 14:00:25 81° 243° (WSW) 14:05:51 145.827
Oscar 19 29 Jan 13:57:38 14:02:15 31° 265° (W) 14:06:49 437.125/150
BEESAT 29 Jan 14:07:45 14:12:34 84° 101° (ESE) 14:17:22 436.000
ITUPSAT 1 29 Jan 14:11:43 14:16:33 89° 119° (ESE) 14:21:21 437.325
ITAMSAT 1 29 Jan 14:13:16 14:18:22 60° 259° (WSW) 14:23:31 435.822/435.867
DANDE 29 Jan 14:13:56 14:18:33 19° 56° (NE) 14:22:38 436.750
STARS 29 Jan 14:20:55 14:23:28 15° 90° (E) 14:26:12 437.465
KKS-1 29 Jan 14:26:41 14:30:28 27° 95° (E) 14:34:18 437.445
SPROUT 29 Jan 14:27:02 14:27:48 10° 299° (WNW) 14:28:20 437.525
VERMONT LUNAR 29 Jan 14:31:17 14:32:47 12° 211° (SSW) 14:34:12 437.305
